Back to catalog

FENGYUN 1C DEB

LostSSO
NORAD 31257·DEBRIS·🇨🇳 China

Launched May 10, 1999 from Taiyuan Satellite Launch Center

Loading…

Next Passes (next 24 hours)

TLE

StaleSource: Space-Track

Epoch: Dec 31, 2024, 01:41 UTC

1 31257U 99025BMP 24366.07037421  .00021482  00000-0  92020-2 0  9990
2 31257  98.7391 101.8773 0099314 342.0859  17.6827 14.22201234908156

Track FENGYUN 1C DEB in real time with AllMySat

Download on the App Store